QFA245 YMAY-YMML

Flight info

Callsign QFA245
Flight time N/A
Altitude 20000
Route AY V147 TEMIS V169 ML
Aircraft B789/H-SDE1E2E3FGHIJ2J3J4J5M1RWXY/LB1D1

Departure

Time 2026-05-08 00:29
Airport Albury Airport (YMAY)

Arrival

Time N/A
Airport Melbourne Airport (YMML)
Time Latitude Longitude Altitude Speed Heading
2026-05-08 00:27 -36.06968 146.95215 552 ft 0 kts 87°
2026-05-08 00:27 -36.06549 146.96940 552 ft 0 kts 261°
2026-05-08 00:28 -36.06556 146.96889 552 ft 31 kts 261°
2026-05-08 00:28 -36.06632 146.96286 552 ft 108 kts 262°
2026-05-08 00:28 -36.06782 146.95107 561 ft 165 kts 261°
2026-05-08 00:29 -36.06945 146.93807 1383 ft 146 kts 258°
2026-05-08 00:29 -36.07415 146.92714 2113 ft 145 kts 236°
2026-05-08 00:29 -36.08228 146.92015 2698 ft 143 kts 216°
2026-05-08 00:29 -36.09125 146.91426 3290 ft 150 kts 211°
2026-05-08 00:30 -36.10076 146.90827 3878 ft 158 kts 210°
2026-05-08 00:30 -36.11082 146.90199 4412 ft 167 kts 209°
2026-05-08 00:30 -36.12166 146.89515 4868 ft 183 kts 209°
2026-05-08 00:30 -36.13349 146.88781 5308 ft 199 kts 208°
2026-05-08 00:31 -36.14667 146.88020 5692 ft 220 kts 208°
2026-05-08 00:31 -36.16057 146.87035 6182 ft 240 kts 212°
2026-05-08 00:31 -36.17465 146.85896 6870 ft 249 kts 215°
2026-05-08 00:31 -36.18892 146.84646 7676 ft 255 kts 216°
2026-05-08 00:32 -36.20327 146.83329 8511 ft 259 kts 216°
2026-05-08 00:32 -36.21778 146.81966 9294 ft 263 kts 217°
2026-05-08 00:32 -36.23233 146.80575 10107 ft 265 kts 217°
2026-05-08 00:32 -36.24711 146.79148 10715 ft 276 kts 217°
2026-05-08 00:33 -36.26263 146.77636 11129 ft 291 kts 217°
2026-05-08 00:33 -36.27894 146.76041 11493 ft 307 kts 217°
2026-05-08 00:33 -36.29585 146.74383 11882 ft 320 kts 217°
2026-05-08 00:33 -36.31348 146.72650 12413 ft 328 kts 217°
2026-05-08 00:34 -36.33149 146.70876 12996 ft 334 kts 217°
2026-05-08 00:34 -36.34985 146.69070 13572 ft 340 kts 217°
2026-05-08 00:34 -36.36854 146.67229 14161 ft 345 kts 217°
2026-05-08 00:34 -36.38750 146.65359 14855 ft 349 kts 217°
2026-05-08 00:35 -36.40656 146.63477 15594 ft 352 kts 217°
2026-05-08 00:35 -36.42578 146.61579 16304 ft 354 kts 218°
2026-05-08 00:35 -36.44517 146.59663 16932 ft 359 kts 218°
2026-05-08 00:35 -36.46453 146.57748 17512 ft 363 kts 218°
2026-05-08 00:36 -36.48446 146.55775 18108 ft 368 kts 218°
2026-05-08 00:36 -36.50454 146.53785 18711 ft 372 kts 218°
2026-05-08 00:36 -36.52486 146.51771 19323 ft 375 kts 218°
2026-05-08 00:36 -36.54534 146.49738 19789 ft 382 kts 218°
2026-05-08 00:37 -36.56614 146.47673 20041 ft 381 kts 218°
2026-05-08 00:37 -36.58673 146.45628 20186 ft 376 kts 218°
2026-05-08 00:37 -36.60712 146.43604 20221 ft 375 kts 218°
2026-05-08 00:38 -36.64757 146.39585 20238 ft 374 kts 218°
2026-05-08 00:38 -36.66791 146.37563 20247 ft 375 kts 218°
2026-05-08 00:38 -36.68831 146.35533 20253 ft 375 kts 218°
2026-05-08 00:38 -36.70866 146.33507 20258 ft 375 kts 218°
2026-05-08 00:39 -36.72901 146.31479 20258 ft 375 kts 218°
2026-05-08 00:39 -36.74935 146.29451 20254 ft 375 kts 218°
2026-05-08 00:39 -36.76970 146.27421 20252 ft 375 kts 218°
2026-05-08 00:39 -36.79002 146.25393 20258 ft 373 kts 218°
2026-05-08 00:40 -36.81029 146.23369 20263 ft 373 kts 218°
2026-05-08 00:40 -36.83058 146.21341 20265 ft 374 kts 218°
2026-05-08 00:40 -36.85062 146.19337 20260 ft 374 kts 218°
2026-05-08 00:40 -36.87089 146.17308 20256 ft 374 kts 218°
2026-05-08 00:41 -36.89117 146.15276 20260 ft 373 kts 218°
2026-05-08 00:41 -36.91142 146.13247 20267 ft 374 kts 218°
2026-05-08 00:41 -36.93168 146.11214 20117 ft 373 kts 218°
2026-05-08 00:41 -36.95186 146.09187 19722 ft 370 kts 218°
2026-05-08 00:42 -36.97178 146.07185 19307 ft 366 kts 218°
2026-05-08 00:42 -36.99150 146.05202 18879 ft 362 kts 218°
2026-05-08 00:42 -37.01078 146.03262 18452 ft 359 kts 218°
2026-05-08 00:42 -37.03022 146.01305 18015 ft 356 kts 218°
2026-05-08 00:43 -37.04944 145.99369 17578 ft 353 kts 218°
2026-05-08 00:43 -37.06852 145.97445 17142 ft 351 kts 218°
2026-05-08 00:43 -37.08742 145.95538 16709 ft 348 kts 218°
2026-05-08 00:43 -37.10620 145.93643 16278 ft 345 kts 218°
2026-05-08 00:44 -37.12481 145.91762 15850 ft 342 kts 217°
2026-05-08 00:44 -37.14330 145.89893 15421 ft 339 kts 217°
2026-05-08 00:44 -37.16157 145.88047 14995 ft 336 kts 217°
2026-05-08 00:44 -37.17943 145.86240 14579 ft 333 kts 217°
2026-05-08 00:45 -37.19708 145.84365 14112 ft 332 kts 221°
2026-05-08 00:45 -37.21221 145.82172 13676 ft 331 kts 228°
2026-05-08 00:45 -37.22623 145.79900 13316 ft 326 kts 229°
2026-05-08 00:45 -37.23973 145.77648 13032 ft 319 kts 230°
2026-05-08 00:46 -37.25284 145.75437 12781 ft 312 kts 230°
2026-05-08 00:46 -37.26557 145.73274 12516 ft 307 kts 230°
2026-05-08 00:46 -37.27825 145.71111 12245 ft 307 kts 230°
2026-05-08 00:46 -37.29094 145.68942 11963 ft 309 kts 230°
2026-05-08 00:47 -37.30323 145.66759 11659 ft 310 kts 232°
2026-05-08 00:47 -37.31479 145.64493 11344 ft 306 kts 234°
2026-05-08 00:47 -37.32597 145.62248 11032 ft 301 kts 234°
2026-05-08 00:47 -37.33690 145.60038 10752 ft 295 kts 235°
2026-05-08 00:48 -37.34754 145.57877 10560 ft 286 kts 235°
2026-05-08 00:48 -37.35776 145.55804 10387 ft 267 kts 235°
2026-05-08 00:48 -37.36692 145.53939 9932 ft 236 kts 235°
2026-05-08 00:48 -37.37537 145.52230 9070 ft 226 kts 235°
2026-05-08 00:49 -37.38343 145.50602 8543 ft 207 kts 236°
2026-05-08 00:49 -37.39027 145.49210 8439 ft 174 kts 235°
2026-05-08 00:49 -37.39649 145.47956 8334 ft 166 kts 235°
2026-05-08 00:49 -37.40253 145.46734 8260 ft 163 kts 235°
2026-05-08 00:50 -37.40850 145.45526 8182 ft 162 kts 235°
2026-05-08 00:50 -37.41440 145.44328 8103 ft 160 kts 235°
2026-05-08 00:50 -37.42027 145.43143 8033 ft 160 kts 235°
2026-05-08 00:50 -37.42612 145.41955 7963 ft 159 kts 235°
2026-05-08 00:51 -37.43192 145.40777 7887 ft 158 kts 235°
2026-05-08 00:51 -37.43771 145.39603 7808 ft 158 kts 235°
2026-05-08 00:51 -37.44340 145.38448 7740 ft 157 kts 235°
2026-05-08 00:51 -37.44914 145.37279 7672 ft 156 kts 236°
2026-05-08 00:52 -37.45487 145.36110 7591 ft 157 kts 236°
2026-05-08 00:52 -37.46058 145.34950 7470 ft 156 kts 236°
2026-05-08 00:52 -37.46629 145.33784 7349 ft 156 kts 236°
2026-05-08 00:52 -37.47200 145.32626 7177 ft 155 kts 236°
2026-05-08 00:53 -37.47766 145.31470 7031 ft 154 kts 236°
2026-05-08 00:53 -37.48328 145.30336 6882 ft 154 kts 236°
2026-05-08 00:53 -37.48899 145.29170 6739 ft 154 kts 236°
2026-05-08 00:53 -37.49456 145.28033 6568 ft 154 kts 236°
2026-05-08 00:54 -37.50017 145.26891 6401 ft 154 kts 236°
2026-05-08 00:54 -37.50578 145.25748 6160 ft 153 kts 236°
2026-05-08 00:54 -37.51141 145.24610 5942 ft 152 kts 236°
2026-05-08 00:54 -37.51508 145.23858 5813 ft 152 kts 236°
2026-05-08 00:55 -37.52212 145.22420 5556 ft 152 kts 236°
2026-05-08 00:55 -37.52765 145.21288 5382 ft 151 kts 237°
2026-05-08 00:55 -37.53308 145.20173 5223 ft 151 kts 237°
2026-05-08 00:55 -37.53858 145.19048 5093 ft 151 kts 237°
2026-05-08 00:56 -37.54406 145.17924 4975 ft 151 kts 237°
2026-05-08 00:56 -37.54959 145.16796 4830 ft 151 kts 237°
2026-05-08 00:56 -37.55510 145.15668 4683 ft 151 kts 237°
2026-05-08 00:56 -37.56059 145.14540 4496 ft 151 kts 237°
2026-05-08 00:57 -37.56609 145.13414 4335 ft 150 kts 237°
2026-05-08 00:57 -37.57153 145.12290 4231 ft 150 kts 238°
2026-05-08 00:57 -37.57704 145.11167 4106 ft 150 kts 237°
2026-05-08 00:57 -37.58246 145.10054 3955 ft 151 kts 238°
2026-05-08 00:58 -37.58798 145.08930 3779 ft 151 kts 238°
2026-05-08 00:58 -37.59345 145.07804 3630 ft 151 kts 238°
2026-05-08 00:58 -37.59892 145.06677 3477 ft 151 kts 238°
2026-05-08 00:58 -37.60410 145.05625 3347 ft 150 kts 238°
2026-05-08 00:59 -37.60949 145.04504 3214 ft 149 kts 238°
2026-05-08 00:59 -37.61498 145.03386 3079 ft 150 kts 239°
2026-05-08 00:59 -37.62043 145.02267 2941 ft 150 kts 239°
2026-05-08 00:59 -37.62585 145.01140 2783 ft 150 kts 239°
2026-05-08 01:00 -37.63125 145.00026 2607 ft 150 kts 239°
2026-05-08 01:00 -37.63665 144.98920 2452 ft 149 kts 238°
2026-05-08 01:00 -37.64211 144.97798 2330 ft 150 kts 238°
2026-05-08 01:00 -37.64757 144.96676 2229 ft 151 kts 238°
2026-05-08 01:01 -37.65302 144.95549 2136 ft 150 kts 238°
2026-05-08 01:01 -37.65853 144.94417 1993 ft 151 kts 238°
2026-05-08 01:01 -37.66394 144.93284 1873 ft 151 kts 239°
2026-05-08 01:01 -37.66631 144.92015 1577 ft 150 kts 258°
2026-05-08 01:02 -37.66586 144.90746 1412 ft 141 kts 268°
2026-05-08 01:02 -37.66514 144.89523 1192 ft 138 kts 269°
2026-05-08 01:02 -37.66439 144.88323 1023 ft 137 kts 270°
2026-05-08 01:02 -37.66391 144.87548 948 ft 136 kts 270°